Location: Borojevi?i
(45.0486°N, 16.2297°E)
Time: 09:09:29
(UTC+00:00)

Spot 4 - Pass Details

Date: 08 August 2020
Orbit: 705 x 723 km, 98.3° (Epoch: 21 September)

Event Time Altitude Azimuth Distance (km) Brightness Sun altitude
Exits shadow 21:27:25 50° 67° (ENE) 904 4.3 -25.6°
Drops below altitude 10° 21:32:00 10° 356° (N) 2,204 7.3 -25.9°
Sets 21:34:20 0° 352° (N) 3,131 8.4 -26.1°
